Location: Lane
(33.5226°N, 79.8788°W)
Time: 06:59:33
(UTC+00:00)

Tiros 1 despin weight - Pass Details

Date: 07 October 2022
Orbit: 590 x 637 km, 48.2° (Epoch: 28 November)

Event Time Altitude Azimuth Distance (km) Brightness Sun altitude
Rises 21:01:12 0° 286° (WNW) 2,833 ? 22.2°
Reaches altitude 10° 21:04:21 10° 309° (NW) 1,942 ? 21.6°
Maximum altitude 21:07:00 15° 346° (NNW) 1,629 ? 21.1°
Drops below altitude 10° 21:09:41 10° 23° (NNE) 1,962 ? 20.6°
Sets 21:12:53 0° 46° (NE) 2,879 ? 20.0°
